Other Public Products
Issued by NWS Grand Forks, ND

Home | Current Version | Previous Version | Text Only | Print | Product List | Glossary Off
Versions: 1 2 3 4 5 6 7 8 9 10 11 12 13 14 15 16 17 18 19 20 21 22 23 24 25 26 27 28 29 30 31 32 33 34 35 36 37 38 39 40 41 42 43 44 45 46 47 48 49 50

000
FPUS83 KFGF 241931
OPUFGF
PRAIRIE TO PINES WEATHER ROUNDUP
NATIONAL WEATHER SERVICE EASTERN NORTH DAKOTA/GRAND FORKS ND
200 PM CDT SUN JUL 24 2016

 **SATELLITE DATA USED TO AUGMENT SKY COVER AT AUTOMATED STATIONS**
 *****  WEATHER ACROSS EASTERN NORTH DAKOTA  *****

CITY           SKY/WX    TMP DP  RH WIND       PRES   REMARKS
GRAND FORKS    PTSUNNY   78  62  57 NW20G26   29.87F
GRAND FORKS AF MOSUNNY   79  61  54 NW16G23   29.89S
GRAND CITY NWS   N/A     79 N/A N/A W10         N/A
BUXTON           N/A     80  62  53 NW18        N/A
DEVILS LAKE    SUNNY     75  57  53 W21G29    29.95R
FARGO          SUNNY     81  60  48 NW16G26   29.90F
WAHPETON ARPT  CLEAR     79  54  41 NW17G25   29.94R
$$

 *****  WEATHER ACROSS CENTRAL AND WESTERN NORTH DAKOTA  *****

CITY           SKY/WX    TMP DP  RH WIND       PRES   REMARKS
JAMESTOWN      SUNNY     78  56  46 NW22      29.97F
BISMARCK       SUNNY     82  55  39 NW15G25   30.04S
MINOT          MOSUNNY   82  55  39 W22G29    29.99F
MINOT AFB      SUNNY     78  54  44 NW22      29.98F
GARRISON         N/A     78  56  46 NW16G24   30.03F
WILLISTON      SUNNY     83  49  30 NW13      30.04F
DICKINSON      SUNNY     79  49  34 W7        30.07F
HETTINGER      SUNNY     86  43  22 N12       30.10F
$$

 *****  OTHER OBSERVATIONS NORTHEAST NORTH DAKOTA  *****

CITY           SKY/WX    TMP DP  RH WIND       PRES   REMARKS
WALHALLA       FAIR      77  73  88 NW16G23   29.87R
LANGDON        FAIR      77  63  61 W17G23    29.92S
CAVALIER       FAIR      77  61  57 NW14G20   29.86S
GRAFTON        FAIR      79  63  57 W21G28    29.89R
CANDO          FAIR      75  59  57 NW17G24   29.96S
FORT TOTTEN    NOT AVBL
ROLLA            N/A     73  57  56 W13G23    29.96R
RUGBY          NOT AVBL
 ***** THE ABOVE OBSERVATIONS ARE NON NWS ARE NOT QUALITY
        CONTROLLED AND MAY MIS-REPORT RAIN FOR SNOW...
$$

 *****  OTHER OBSERVATIONS SOUTHEAST NORTH DAKOTA *****

CITY           SKY/WX    TMP DP  RH WIND       PRES   REMARKS
COOPERSTOWN    NOT AVBL
VALLEY CITY    FAIR      77  55  47 NW24      29.98S
OAKES            N/A    N/A N/A N/A MISG        N/A
GWINNER        FAIR      82  57  42 NW18G25   29.98R
SHEYENNE NWR     N/A     81  54  38 NW16      29.95S
BUFFALO          N/A     78  51  39 NW17        N/A
WYNDMERE         N/A     82  57  42 NW12        N/A
 ***** THE ABOVE OBSERVATIONS ARE NON NWS ARE NOT QUALITY
       CONTROLLED AND MAY MIS-REPORT RAIN FOR SNOW...
$$

  *****  WEATHER ACROSS NORTHERN MINNESOTA  *****

CITY           SKY/WX    TMP DP  RH WIND       PRES   REMARKS
FLAG ISLAND    MOSUNNY   73  57  56 W16G23    29.77F
WARROAD        SUNNY     75  64  69 W12G22    29.82S
ROSEAU         SUNNY     77  64  65 W15G23    29.83S
HALLOCK        MOSUNNY   79  63  57 NW15G22   29.85R
THF RVR FALLS  MOSUNNY   76  64  66 W10G21    29.88S
HALSTAD        NOT AVBL
FOSSTON        SUNNY     75  63  64 W14       29.89S
BAUDETTE       MOSUNNY   76  59  55 W15G25    29.81F
WASKISH        SUNNY     79  64  61 W15       29.84R
CROOKSTON      MOSUNNY   79  63  57 NW17G26   29.88S
$$
  *****  WEATHER ACROSS CENTRAL AND WEST MINNESOTA  *****

CITY           SKY/WX    TMP DP  RH WIND       PRES   REMARKS
BEMIDJI        MOSUNNY   77  61  57 W16G22    29.87S
PARK RAPIDS    MOSUNNY   79  61  53 W14G24    29.90F
WADENA         MOSUNNY   75  61  60 NW14G20   29.90S
DETROIT LAKES  MOSUNNY   77  61  57 NW17G24   29.92F
MOORHEAD       SUNNY     79  59  50 NW21G26   29.91S
FERGUS FALLS   MOSUNNY   79  61  53 NW13      29.93R
ELBOW LAKE     MOCLDY    77  64  63 NW13      29.95R
MORRIS MN      MOSUNNY   81  63  54 NW13G18   29.95R
STAPLES        MOSUNNY   79  57  47 NW14      29.89F
WHEATON        MOSUNNY   82  64  54 NW9       29.96S
$$
  *****  WEATHER ELSEWHERE ACROSS MINNESOTA  *****

CITY           SKY/WX    TMP DP  RH WIND       PRES   REMARKS
DULUTH         MOSUNNY   79  62  56 NW17      29.83S
INTRNTL FALLS  MOSUNNY   78  61  55 W15G23    29.79F
ELY            PTSUNNY   75  57  53 W15G23    29.80S
CLOQUET        MOSUNNY   79  57  47 NW15      29.85R
BRAINERD       MOSUNNY   78  60  53 W12G20    29.89F
HIBBING        MOSUNNY   75  60  59 W14G23    29.83S
ALEXANDRIA     MOSUNNY   78  60  53 NW13G24   29.94F
SAINT CLOUD    SUNNY     79  63  57 NW15      29.89F
MINNEAPOLIS    MOSUNNY   83  62  49 N16G23    29.88S
$$

  *****  WEATHER ACROSS SOUTH DAKOTA  *****

CITY           SKY/WX    TMP DP  RH WIND       PRES   REMARKS
SIOUX FALLS    CLOUDY    76  61  59 W7        30.07R
BROOKINGS      LGT RAIN  73  63  70 W8        30.06R
WATERTOWN      CLOUDY    78  57  48 NW16      30.03R
HURON          CLOUDY    74  60  61 W6        30.05F
SISSETON         N/A     82  58  43 NW18      29.96R
ABERDEEN       MOSUNNY   83  58  42 NW14      30.02R
MITCHELL       CLOUDY    74  63  68 W3        30.09R
PIERRE         PTSUNNY   82  52  35 NW9       30.07F
MOBRIDGE       SUNNY     84  55  36 W9G18     30.04F
RAPID CITY     PTSUNNY   83  49  30 SE9       30.13F
$$

  *****  SOME WEATHER IN NEARBY STATES *****

CITY           SKY/WX    TMP DP  RH WIND       PRES   REMARKS
GLASGOW MT     MOSUNNY   84  53  34 VRB3      30.00F
GREAT FALLS MT SUNNY     78  34  20 MISG      30.09F
CHEYENNE WY    TSTM      76  53  44 SE12      30.23F
SCOTTSBLUFF NE SUNNY     85  50  29 SE20G26   30.15F
OMAHA NE       CLOUDY    83  67  58 N9        29.97F
DES MOINES IA  PTSUNNY   87  66  49 N10       29.93S
DAVENPORT IA   CLOUDY    88  79  74 SW12      29.88S HX 103
CHICAGO IL     PTSUNNY   91  77  63 S17G24    29.86F HX 104
EAU CLAIRE WI  SUNNY     85  64  49 W10       29.84S
LA CROSSE WI   SUNNY     88  65  46 NW13      29.84F HX  90
$$

  *****  SOME NATIONAL WEATHER *****

CITY           SKY/WX    TMP DP  RH WIND       PRES   REMARKS
LA GUARDIA NY  PTSUNNY   90  63  40 SE18      29.93F HX  91
RALEIGH NC     PTSUNNY   94  73  50 SE8       30.02F HX 103
ATLANTA GA     PTSUNNY   94  68  42 SW12      30.04F HX  98
NEW ORLEANS LA CLOUDY    88  77  69 SE13      29.97F HX 100
OKLAHOMA CITY  MOSUNNY   99  68  36 S12G18    29.96F HX 104
ALBUQUERQUE NM MOSUNNY   93  43  17 S7        30.13F
SALT LAKE CITY MOSUNNY   88  36  15 N7        30.10F
LOS ANGELES CA MOSUNNY   83  64  52 SE8       29.94R
BOISE ID       SUNNY     82  42  24 VRB5      30.08F
SEATTLE WA     SUNNY     71  56  58 W7        30.13F
$$

*** WEATHER ACROSS MANITOBA...SASKATCHEWAN AND ONTARIO ***
                ***ONTARIO***

CITY           SKY/WX    TMP DP  RH WIND       PRES   REMARKS
GERALDTON      CLOUDY    68  64  88 N9        29.69F
THUNDER BAY    PTSUNNY   79  70  73 E7        29.66F
SIOUX LOOKOUT  PTSUNNY   72  61  68 W8G20     29.69S
TORONTO        CLOUDY    79  63  57 SE8       29.95F
BIG TROUT LK   CLOUDY    66  64  94 SE7       29.51F
PICKLE LAKE    PTSUNNY   77  59  53 W15G28    29.56F
DRYDEN         CLOUDY    72  59  64 W16G28    29.72F
KENORA         PTSUNNY   72  61  68 W13G20    29.77R
$$
                *** MANITOBA***

CITY           SKY/WX    TMP DP  RH WIND       PRES   REMARKS
BRANDON        PTSUNNY   77  61  57 NW14G26   29.90R
DAUPHIN        MOSUNNY   75  61  60 NW13G18   29.85R
ISLAND LAKE    LGT RAIN  64  63  94 NW13      29.65R
PILOT MOUND      N/A     73  59  60 NW13G23     N/A
THE PAS        MOSUNNY   72  57  60 NW7       29.81S
THOMPSON       PTSUNNY   66  61  82 N8        29.76S
WINNIPEG       MOSUNNY   73  61  64 NW20G26   29.83R
LYNN LAKE      MOSUNNY   72  54  53 MISG      29.78F
CHURCHILL      MOSUNNY   57  52  82 NE10      29.81R
GILLAM         PTSUNNY   64  55  72 NE13G20   29.73S
$$
                ***SASKATCHEWAN***

CITY           SKY/WX    TMP DP  RH WIND       PRES   REMARKS
ESTEVAN        MOSUNNY   75  57  53 W15G24    30.01S
KINDERSLEY     MOSUNNY   75  59  57 SW7       29.99F
LLOYDMINSTER   MOSUNNY   75  54  46 W12G20    29.92F
PRINCE ALBERT  MOSUNNY   77  54  44 W8        29.89F
REGINA         MOSUNNY   73  57  56 W13G18    30.00S
YORKTON        PTSUNNY   73  59  60 NW15G24   29.92S   C1F1C2F2C3F3C4F4C5F5C6F6C7F7C8F8C9F9CaFaCbFbCcFcCdFdCe!



USA.gov is the U.S. government's official web portal to all federal, state and local government web resources and services.